| time (UTC) | temp F | wind direction | speed knots | gust knots | rain 1hr in | rain 24hr in | rain mn in | humidity % | barometer mb |
| 20260503231542 | 74 | 285 | 5.2 | 0.0 | 0.00 | 0.00 | 0.00 | 31 | 1009.2 |
| 20260503230041 | 74 | 234 | 3.5 | 0.0 | 0.00 | 0.00 | 0.00 | 27 | 1009.2 |
| 20260503224522 | 75 | 284 | 4.3 | 0.0 | 0.00 | 0.00 | 0.00 | 28 | 1009.6 |
| 20260503223020 | 74 | 281 | 4.3 | 0.0 | 0.00 | 0.00 | 0.00 | 27 | 1009.7 |
| 20260503221501 | 74 | 294 | 6.1 | 0.0 | 0.00 | 0.00 | 0.00 | 28 | 1009.9 |
| 20260503220112 | 74 | 312 | 4.3 | 0.0 | 0.00 | 0.00 | 0.00 | 29 | 1010.0 |
| 20260503214540 | 74 | 286 | 5.2 | 0.0 | 0.00 | 0.00 | 0.00 | 29 | 1010.2 |
| 20260503213041 | 75 | 296 | 6.1 | 0.0 | 0.00 | 0.00 | 0.00 | 28 | 1010.4 |
| 20260503211521 | 74 | 276 | 5.2 | 0.0 | 0.00 | 0.00 | 0.00 | 25 | 1010.6 |
| 20260503210019 | 73 | 290 | 6.1 | 0.0 | 0.00 | 0.00 | 0.00 | 27 | 1010.7 |
| 20260503204503 | 74 | 294 | 6.1 | 0.0 | 0.00 | 0.00 | 0.00 | 27 | 1010.8 |
| 20260503203059 | 74 | 304 | 2.6 | 0.0 | 0.00 | 0.00 | 0.00 | 33 | 1010.9 |
| 20260503201540 | 75 | 286 | 2.6 | 0.0 | 0.00 | 0.00 | 0.00 | 32 | 1011.1 |
| 20260503200037 | 74 | 273 | 2.6 | 0.0 | 0.00 | 0.00 | 0.00 | 28 | 1011.3 |
| 20260503194525 | 74 | 210 | 2.6 | 0.0 | 0.00 | 0.00 | 0.00 | 27 | 1011.4 |
| 20260503193014 | 74 | 291 | 1.7 | 0.0 | 0.00 | 0.00 | 0.00 | 30 | 1011.6 |
| 20260503191600 | 71 | 227 | 2.6 | 0.0 | 0.00 | 0.00 | 0.00 | 35 | 1011.8 |
| 20260503190053 | 72 | 201 | 2.6 | 0.0 | 0.00 | 0.00 | 0.00 | 37 | 1012.0 |
| 20260503184532 | 71 | 202 | 2.6 | 0.0 | 0.00 | 0.00 | 0.00 | 39 | 1012.1 |
| 20260503183036 | 70 | 216 | 1.7 | 0.0 | 0.00 | 0.00 | 0.00 | 42 | 1012.4 |
| 20260503181524 | 70 | 225 | 0.9 | 0.0 | 0.00 | 0.00 | 0.00 | 44 | 1012.5 |
| 20260503180009 | 69 | 242 | 1.7 | 0.0 | 0.00 | 0.00 | 0.00 | 44 | 1012.6 |
| 20260503174555 | 68 | 279 | 0.9 | 0.0 | 0.00 | 0.00 | 0.00 | 44 | 1012.8 |
| 20260503173055 | 67 | 280 | 0.9 | 0.0 | 0.00 | 0.00 | 0.00 | 43 | 1012.9 |
| 20260503171529 | 66 | 281 | 0.0 | 0.0 | 0.00 | 0.00 | 0.00 | 45 | 1013.0 |
| 20260503100105 | 41 | 289 | 0.0 | 0.0 | 0.00 | 0.00 | 0.00 | 86 | 1013.7 |
| 20260503081521 | 44 | 289 | 0.0 | 0.0 | 0.00 | 0.00 | 0.00 | 82 | 1013.1 |
| 20260503071524 | 47 | 289 | 0.0 | 0.0 | 0.00 | 0.00 | 0.00 | 80 | 1013.0 |
| 20260503060109 | 50 | 289 | 0.0 | 0.0 | 0.00 | 0.00 | 0.00 | 73 | 1012.9 |
| 20260503054539 | 51 | 289 | 0.0 | 0.0 | 0.00 | 0.00 | 0.00 | 72 | 1012.9 |
| 20260503053030 | 52 | 289 | 0.0 | 0.0 | 0.00 | 0.00 | 0.00 | 70 | 1012.9 |
| 20260503051515 | 53 | 289 | 0.0 | 0.0 | 0.00 | 0.00 | 0.00 | 68 | 1012.8 |
| 20260503050056 | 54 | 289 | 0.0 | 0.0 | 0.00 | 0.00 | 0.00 | 67 | 1012.7 |
| 20260503044619 | 55 | 289 | 0.0 | 0.0 | 0.00 | 0.00 | 0.00 | 66 | 1012.7 |
| 20260503043033 | 56 | 289 | 0.0 | 0.0 | 0.00 | 0.00 | 0.00 | 63 | 1012.6 |
| 20260503041528 | 58 | 289 | 0.0 | 0.0 | 0.00 | 0.00 | 0.00 | 58 | 1012.6 |
| 20260503040011 | 60 | 289 | 0.0 | 0.0 | 0.00 | 0.00 | 0.00 | 53 | 1012.4 |
| 20260503034504 | 61 | 289 | 0.0 | 0.0 | 0.00 | 0.00 | 0.00 | 49 | 1012.2 |
| 20260503033047 | 63 | 289 | 0.0 | 0.0 | 0.00 | 0.00 | 0.00 | 48 | 1012.1 |
| 20260503031546 | 63 | 289 | 0.0 | 0.0 | 0.00 | 0.00 | 0.00 | 49 | 1011.9 |
| 20260503030037 | 65 | 289 | 0.0 | 0.0 | 0.00 | 0.00 | 0.00 | 46 | 1011.7 |
| 20260503024533 | 67 | 289 | 0.9 | 0.0 | 0.00 | 0.00 | 0.00 | 42 | 1011.7 |
| 20260503023037 | 69 | 289 | 1.7 | 0.0 | 0.00 | 0.00 | 0.00 | 34 | 1011.6 |
| 20260503021531 | 70 | 289 | 2.6 | 0.0 | 0.00 | 0.00 | 0.00 | 32 | 1011.5 |
| 20260503020036 | 72 | 289 | 3.5 | 0.0 | 0.00 | 0.00 | 0.00 | 30 | 1011.4 |
| 20260503014531 | 74 | 270 | 1.7 | 0.0 | 0.00 | 0.00 | 0.00 | 29 | 1011.3 |
| 20260503013029 | 74 | 270 | 0.9 | 0.0 | 0.00 | 0.00 | 0.00 | 29 | 1011.3 |
| 20260503011530 | 74 | 270 | 0.9 | 0.0 | 0.00 | 0.00 | 0.00 | 30 | 1011.5 |
| 20260503010027 | 74 | 269 | 2.6 | 0.0 | 0.00 | 0.00 | 0.00 | 29 | 1011.5 |
| 20260503004527 | 73 | 269 | 0.9 | 0.0 | 0.00 | 0.00 | 0.00 | 30 | 1011.7 |
| 20260503003008 | 74 | 269 | 1.7 | 0.0 | 0.00 | 0.00 | 0.00 | 29 | 1011.8 |
| 20260503001509 | 76 | 267 | 0.9 | 0.0 | 0.00 | 0.00 | 0.00 | 25 | 1011.8 |
| 20260503000052 | 75 | 267 | 0.9 | 0.0 | 0.00 | 0.00 | 0.00 | 27 | 1011.9 |
| 20260502234601 | 75 | 265 | 3.5 | 0.0 | 0.00 | 0.00 | 0.00 | 27 | 1012.0 |
| 20260502233029 | 76 | 168 | 0.0 | 0.0 | 0.00 | 0.00 | 0.00 | 22 | 1012.2 |